Location: Unspecified
(48.8656°N, 0.0000°E)
Time: 09:28:10
(UTC+00:00)

Transit 2A Rocket - Pass Details

Date: 26 June 2019
Orbit: 588 x 915 km, 66.7° (Epoch: 23 July)

Event Time Altitude Azimuth Distance (km) Brightness Sun altitude
Rises 16:19:00 0° 325° (NW) 3,367 8.7 34.3°
Reaches altitude 10° 16:21:48 10° 336° (NNW) 2,377 7.9 33.8°
Maximum altitude 16:26:39 32° 39° (NE) 1,266 6.1 33.0°
Drops below altitude 10° 16:31:06 10° 103° (ESE) 2,168 6.9 32.3°
Sets 16:33:33 0° 113° (ESE) 3,029 7.6 31.9°
